Regional Weather Roundup
Issued by NWS

Home | Current Version | Previous Version | Graphics & Text | Print | Product List | Glossary Off
Versions: 1 2 3 4 5 6 7 8 9 10 11 12 13 14 15 16 17 18 19 20 21 22 23 24 25 26 27 28 29 30 31 32 33 34 35 36 37 38 39 40 41 42 43 44 45 46 47 48 49 50

000
ASUS43 KDMX 031703
RWRIA

WEATHER ROUNDUP FOR IOWA
NATIONAL WEATHER SERVICE DES MOINES IA
1200 PM CDT TUE MAY 03 2016

NOTE: "FAIR" INDICATES FEW OR NO CLOUDS BELOW 12,000 FEET WITH NO
SIGNIFICANT WEATHER AND/OR OBSTRUCTIONS TO VISIBILITY.

* - THESE STATIONS ARE NOT NWS STATIONS...THUS NOT UNDER NWS
QUALITY CONTROL.  THEY ALSO DO NOT REPORT WEATHER SUCH
AS PRECIPITATION OR FOG.

IAZ001>003-012>014-020>022-031>034-043>046-031800-
   NORTHWEST IOWA

CITY           SKY/WX    TMP DP  RH WIND       PRES   REMARKS
CARROLL *      SUNNY     64  43  45 W18       30.00F
CHEROKEE *     SUNNY     64  46  52 W12G17    30.00F
DENISON *      SUNNY     63  43  48 W14G20    30.01S
LE MARS *      SUNNY     63  45  51 W13       30.01F
ORANGE CITY *  SUNNY     63  46  55 NW16      30.00F
SHELDON *      MOSUNNY   63  45  51 W18       29.97F
SIOUX CITY     SUNNY     65  47  52 W10       30.02F
SPENCER        SUNNY     64  42  44 W16       29.98F
STORM LAKE *   SUNNY     63  43  48 W13       30.00F
$$

IAZ055>058-069>071-079>083-090>094-031800-
   SOUTHWEST IOWA

CITY           SKY/WX    TMP DP  RH WIND       PRES   REMARKS
ATLANTIC *     MOSUNNY   63  41  45 W12       30.04S
AUDUBON *      MOSUNNY   64  43  45 W7        30.04F
CLARINDA *       N/A    N/A N/A N/A MISG        N/A
COUNCIL BLFS * SUNNY     64  41  42 W9G16     30.05S
CRESTON *      PTSUNNY   61  41  48 W9G16     30.05S
HARLAN  *      SUNNY     63  41  45 W14       30.07S
LAMONI         MOSUNNY   63  43  48 VRB6      30.04F
SHENANDOAH *   MOSUNNY   64  43  45 W7G17     30.06F
$$

IAZ047>049-059>061-072>074-084-031800-
   CENTRAL IOWA

CITY           SKY/WX    TMP DP  RH WIND       PRES   REMARKS
AMES           MOSUNNY   64  42  44 W12       30.00F
ANKENY *       PTSUNNY   64  41  42 NW9G16    30.01F
BOONE *        MOSUNNY   63  43  48 W14G20    30.00F
CHARITON *     MOSUNNY   63  39  42 W8        30.02F
DES MOINES     MOSUNNY   66  37  34 W9        30.01F
GRINNELL*      PTSUNNY   61  39  44 W6        30.01F
KNOXVILLE *    PTSUNNY   63  37  39 NW12G17   30.00F
MARSHALLTOWN   PTSUNNY   64  42  44 W14       29.98F
NEWTON *       PTSUNNY   64  39  39 W13       30.00F
$$

IAZ004>006-015-016-023>025-035-036-031800-
   NORTH CENTRAL IOWA

CITY           SKY/WX    TMP DP  RH WIND       PRES   REMARKS
ALGONA *       MOSUNNY   64  41  42 W20       29.98F
CLARION *      MOSUNNY   63  43  48 W13G18    29.98F
ESTHERVILLE    MOSUNNY   63  43  48 W16G24    29.96F
FORT DODGE *   MOSUNNY   64  43  45 W12       29.99F
MASON CITY     MOSUNNY   65  40  39 W14G24    29.96F
FOREST CITY *    N/A     63  37  39 W14G20    29.96F
WEBSTER CITY * MOSUNNY   64  39  39 W14G22    29.97F
IOWA FALLS *     N/A     64  43  45 W12G17    29.99F
$$

IAZ007>011-017>019-026>030-037>042-050>054-066-031800-
   NORTHEAST IOWA

CITY           SKY/WX    TMP DP  RH WIND       PRES   REMARKS
CEDAR RAPIDS   MOSUNNY   62  44  51 W13G22    29.97F
CHARLES CITY * SUNNY     64  43  45 W16       29.95F
CLINTON *      MOSUNNY   63  43  48 W14G22    29.96F
DECORAH *      MOSUNNY   64  37  36 W13G21    29.91F
DUBUQUE        MOSUNNY   63  43  48 W20G25    29.95F
MONTICELLO *   MOSUNNY   64  43  45 W14G22    29.95F
OELWEIN *      PTSUNNY   63  41  45 W15       29.95F
WATERLOO       MOSUNNY   64  39  39 W15       29.96F
$$

IAZ064-065-067-068-078-031800-
   EAST CENTRAL IOWA

CITY           SKY/WX    TMP DP  RH WIND       PRES   REMARKS
DAVENPORT      MOSUNNY   65  44  46 NW15      29.98F
IOWA CITY      SUNNY     64  43  46 W14       30.00F
MT. PLEASANT * MOSUNNY   64  43  45 W12       30.01F
MUSCATINE *    SUNNY     66  41  39 NW13G18   30.00F
QUAD CITIES    SUNNY     67  44  43 NW10      29.97F
$$

IAZ062-063-075>077-085>089-095>099-031800-
   SOUTHEAST IOWA

CITY           SKY/WX    TMP DP  RH WIND       PRES   REMARKS
BURLINGTON     MOSUNNY   64  40  41 NW8       30.00F
FAIRFIELD *    SUNNY     63  43  48 W9G17     30.01F
FORT MADISON * MOSUNNY   63  43  48 NW8       30.02F
KEOKUK *       PTSUNNY   63  39  42 N7        30.01F
OSKALOOSA *      N/A     64  41  42 W12       30.02S
OTTUMWA        MOSUNNY   63  43  48 W7        30.01F
WASHINGTON *   SUNNY     64  43  45 W9G15     30.02F
$$

ABBREVIATIONS USED IN REMARKS
   TC - TEMPERATURES IN CELSIUS
  WCI - WIND CHILL INDEX
   HX - HEAT INDEX
  VSB - VISIBILITY
$$





USA.gov is the U.S. government's official web portal to all federal, state and local government web resources and services.